Location: Arpaise
(41.0333°N, 14.7333°E)
Time: 22:05:13
(UTC+00:00)

Cosmos 846 Rocket - Pass Details

Date: 26 January 2021
Orbit: 948 x 991 km, 82.9° (Epoch: 06 March)

Event Time Altitude Azimuth Distance (km) Brightness Sun altitude
Rises 03:52:41 0° 4° (N) 3,630 8.5 -27.2°
Reaches altitude 10° 03:55:40 10° 17° (NNE) 2,679 7.9 -26.6°
Maximum altitude 04:00:37 25° 72° (ENE) 1,804 7.5 -25.7°
Drops below altitude 10° 04:05:34 10° 126° (SE) 2,670 8.5 -24.8°
Sets 04:08:31 0° 139° (SE) 3,615 9.1 -24.2°
